Weather History for KSET - May, 2014

Change the Weather History Date:

Saturday, May 31, 2014

  Actual Average (KSTL) Record (KSTL)
Temperature  
Mean Temperature 76 °F 71 °F  
Max Temperature 88 °F 81 °F 98 °F (1934)
Min Temperature 66 °F 62 °F 42 °F (1889)
Degree Days  
Heating Degree Days 0 1  
Month to date heating degree days 75  
Since 1 July heating degree days 4530  
Cooling Degree Days 12 7  
Month to date cooling degree days 128  
Year to date cooling degree days 174  
Growing Degree Days 26 (Base 50)    
Moisture  
Dew Point 68 °F    
Average Humidity 78    
Maximum Humidity 97    
Minimum Humidity 51    
Precipitation  
Precipitation 0.00 in 0.16 in 1.74 in (2013)
Month to date precipitation 4.72  
Year to date precipitation 16.37  
Snow  
Snow 0.00 in 0.00 in 0.00 in (2012)
Month to date snowfall 0.0  
Since 1 July snowfall 17.7  
Snow Depth -    
Sea Level Pressure  
Sea Level Pressure 30.04 in    
Wind  
Wind Speed 6 mph (ESE)    
Max Wind Speed 25 mph    
Max Gust Speed 37 mph    
Visibility 8 miles    
Events Rain , Thunderstorm    
T = Trace of Precipitation, MM = Missing Value Source: NWS Daily Summary

Daily Weather History Graph

Daily Weather History Graph

Search for Another Location

Airport or City:

Trip Planner

Search our weather history database for the weather conditions in past years. The results will help you decide how hot, cold, wet, or windy it might be!

Date:

Astronomy

May. 31, 2014 Rise Set
Actual Time 5:38 AM CDT 8:20 PM CDT
Civil Twilight 5:07 AM CDT 8:52 PM CDT
Nautical Twilight 4:28 AM CDT 9:31 PM CDT
Astronomical Twilight 3:43 AM CDT 10:15 PM CDT
Moon 8:15 AM CDT (5/31) 10:39 PM CDT (5/31)
Length of Visible Light 15h 44m
Length of Day
14h 42m
Waxing Crescent, 8% of the Moon is Illuminated
May 31
Waxing Crescent
Jun 5
First Quarter
Jun 12
Full
Jun 19
Last Quarter
Jun 27
New

Hourly Weather History & Observations

Time (CDT) Temp. Heat Index Dew Point Humidity Pressure Visibility Wind Dir Wind Speed Gust Speed Precip Events Conditions
12:54 AM 70.0 °F - 66.9 °F 90% 30.04 in 7.0 mi East 5.8 mph - N/A   Clear
1:54 AM 70.0 °F - 66.9 °F 90% 30.05 in 7.0 mi Calm Calm - 0.00 in   Clear
2:54 AM 69.1 °F - 66.9 °F 93% 30.06 in 5.0 mi Calm Calm - N/A   Clear
3:54 AM 68.0 °F - 66.9 °F 96% 30.06 in 6.0 mi NE 5.8 mph - N/A   Clear
4:54 AM 68.0 °F - 66.0 °F 93% 30.07 in 5.0 mi Calm Calm - N/A   Clear
5:46 AM 68.0 °F - 66.9 °F 96% 30.09 in 2.0 mi Calm Calm - N/A   Clear
5:54 AM 66.9 °F - 66.0 °F 97% 30.08 in 2.0 mi Calm Calm - N/A   Clear
6:19 AM 68.0 °F - 66.0 °F 93% 30.10 in 2.5 mi Calm Calm - N/A   Clear
6:47 AM 70.0 °F - 68.0 °F 93% 30.10 in 3.0 mi Calm Calm - 0.00 in   Clear
6:54 AM 70.0 °F - 68.0 °F 93% 30.09 in 4.0 mi Calm Calm - 0.00 in   Clear
7:54 AM 73.9 °F - 69.1 °F 85% 30.09 in 5.0 mi East 5.8 mph - N/A   Haze
8:54 AM 75.9 °F - 69.1 °F 79% 30.09 in 6.0 mi ESE 4.6 mph - 0.00 in   Haze
10:54 AM 82.9 °F 87.0 °F 70.0 °F 65% 30.07 in 10.0 mi SE 8.1 mph - N/A   Clear
11:54 AM 84.0 °F 87.8 °F 69.1 °F 61% 30.06 in 10.0 mi ESE 9.2 mph - N/A   Mostly Cloudy
12:54 PM 86.0 °F 88.2 °F 66.0 °F 51% 30.05 in 10.0 mi ESE 8.1 mph - 0.00 in   Clear
1:54 PM 87.1 °F 90.6 °F 68.0 °F 53% 30.02 in 10.0 mi SE 5.8 mph - 0.00 in   Partly Cloudy
2:54 PM 86.0 °F 88.2 °F 66.0 °F 51% 30.00 in 10.0 mi SE 8.1 mph - N/A   Scattered Clouds
3:14 PM 82.9 °F 85.4 °F 66.9 °F 58% 30.02 in 10.0 mi SE 17.3 mph - N/A Thunderstorm Mostly Cloudy
3:30 PM 84.0 °F 85.8 °F 64.9 °F 53% 30.02 in 10.0 mi ESE 9.2 mph - N/A Thunderstorm Thunderstorm
3:45 PM 84.0 °F 86.5 °F 66.9 °F 56% 30.02 in 10.0 mi ESE 17.3 mph - N/A Thunderstorm Mostly Cloudy
3:54 PM 81.0 °F 84.1 °F 69.1 °F 67% 30.02 in 9.0 mi SE 16.1 mph - 0.00 in Thunderstorm Mostly Cloudy
4:24 PM 75.0 °F - 66.9 °F 76% 30.04 in 10.0 mi ESE 25.3 mph 36.8 mph N/A Thunderstorm Mostly Cloudy
4:47 PM 77.0 °F - 68.0 °F 74% 30.03 in 10.0 mi East 15.0 mph - N/A   Partly Cloudy
4:54 PM 78.1 °F - 68.0 °F 71% 30.01 in 10.0 mi East 15.0 mph - N/A   Partly Cloudy
5:18 PM 79.0 °F - 66.9 °F 66% 30.01 in 10.0 mi ESE 12.7 mph - 0.00 in Rain Light Rain
5:54 PM 77.0 °F - 66.0 °F 69% 29.99 in 10.0 mi SE 8.1 mph - 0.00 in   Scattered Clouds
6:54 PM 75.9 °F - 68.0 °F 76% 29.99 in 10.0 mi ESE 8.1 mph - 0.00 in   Clear
7:54 PM 75.9 °F - 69.1 °F 79% 30.00 in 10.0 mi East 8.1 mph - 0.00 in   Clear
8:54 PM 73.0 °F - 69.1 °F 87% 29.99 in 10.0 mi East 4.6 mph - 0.00 in   Clear
9:54 PM 73.0 °F - 70.0 °F 90% 30.01 in 9.0 mi East 4.6 mph - 0.00 in Rain Light Rain
10:54 PM 72.0 °F - 70.0 °F 93% 30.02 in 6.0 mi East 5.8 mph - 0.00 in   Clear
11:54 PM 72.0 °F - 70.0 °F 93% 30.03 in 5.0 mi East 4.6 mph - N/A   Clear